Torna al catalogo

KUIPER-00204

AttivoComunicazioniLEO
NORAD 67145·PAYLOAD·🇺🇸 United States

Lanciato Dec 15, 2025 da Cape Canaveral Space Force Station

Loading…

Prossimi Passaggi (prossime 24 ore)

TLE

AggiornatoSource: CelesTrak SupGP

Epoca: Sep 14, 2026, 20:10 UTC

1 67145C 25301N   26257.84069444  .00000620  00000+0  81208-4 0  2572
2 67145  51.9005 289.2165 0000468  70.2735 338.0178 14.79926395    16

Traccia KUIPER-00204 in tempo reale con AllMySat

Download on the App Store